Date,Time,Wetness (Wet Dry or Ice),Wind Speed (m/s),Temperature (C),Humidity (%),Pressure (mb),Radiation (W/m^2)
2022-11-26,06:10:00,DRY,0.60,10.53,17.0,777.00,0.0
2022-11-26,06:15:00,DRY,0.40,10.45,17.0,777.00,0.0
2022-11-26,06:20:00,DRY,0.60,10.33,17.0,777.00,0.0
2022-11-26,06:25:00,DRY,0.50,10.30,17.5,777.00,0.0
2022-11-26,06:30:00,DRY,0.57,10.30,16.0,777.00,0.0
2022-11-26,06:35:00,DRY,1.00,10.45,15.0,777.00,0.0
2022-11-26,06:40:00,DRY,1.27,10.60,15.0,777.00,0.0
2022-11-26,06:45:00,DRY,1.15,10.70,15.0,777.00,0.0
2022-11-26,06:50:00,DRY,0.77,10.70,15.0,777.00,0.0
2022-11-26,06:55:00,DRY,1.50,10.65,15.0,777.00,0.0
2022-11-26,07:00:00,DRY,1.03,10.70,15.0,777.00,0.0
2022-11-26,07:05:00,DRY,0.75,10.65,15.0,777.00,0.0
2022-11-26,07:10:00,DRY,0.50,10.57,15.3,777.00,0.0
2022-11-26,07:15:00,DRY,0.65,10.50,15.5,777.00,0.0
2022-11-26,07:20:00,DRY,0.63,10.33,15.0,777.00,0.0
2022-11-26,07:25:00,DRY,1.00,10.10,15.5,777.00,0.0
2022-11-26,07:30:00,DRY,0.47,10.10,15.0,777.00,0.0
2022-11-26,07:35:00,DRY,0.80,10.20,16.0,777.00,0.0
2022-11-26,07:40:00,DRY,0.50,10.53,16.3,777.00,0.0
2022-11-26,07:45:00,DRY,1.00,10.50,15.0,777.00,0.0
2022-11-26,07:50:00,DRY,1.13,10.67,15.0,777.00,2.0
2022-11-26,07:55:00,DRY,0.95,10.70,15.0,777.00,4.5
2022-11-26,08:00:00,DRY,1.03,10.70,15.0,777.00,7.7
2022-11-26,08:05:00,DRY,1.25,10.80,15.0,777.50,10.0
2022-11-26,08:10:00,DRY,1.57,11.00,15.0,778.00,13.0
2022-11-26,08:15:00,DRY,1.90,11.25,15.0,778.00,17.0
2022-11-26,08:20:00,DRY,1.53,11.23,15.7,778.00,22.0
2022-11-26,08:25:00,DRY,1.20,11.20,16.0,778.00,125.0
2022-11-26,08:30:00,DRY,1.50,11.30,15.7,778.00,149.7
2022-11-26,08:35:00,DRY,0.90,11.55,15.5,778.00,166.0
2022-11-26,08:40:00,DRY,0.50,11.50,16.3,778.00,183.3
2022-11-26,08:45:00,DRY,0.75,11.45,16.5,778.00,201.5
2022-11-26,08:50:00,DRY,1.00,11.83,17.0,778.00,219.7
2022-11-26,08:55:00,DRY,0.50,12.00,17.0,778.00,237.0
2022-11-26,09:00:00,DRY,0.90,11.97,17.3,778.00,255.3
2022-11-26,09:05:00,DRY,1.80,11.95,16.5,778.00,274.0
2022-11-26,09:10:00,DRY,1.10,12.17,17.0,778.00,292.0
2022-11-26,09:15:00,DRY,1.05,12.30,17.0,778.00,309.0
2022-11-26,09:20:00,DRY,0.77,12.40,17.3,778.00,326.0
2022-11-26,09:25:00,DRY,1.30,12.50,17.5,778.00,343.0
2022-11-26,09:30:00,DRY,1.27,12.60,16.7,778.00,360.7
2022-11-26,09:35:00,DRY,0.85,12.60,18.5,778.00,376.5
2022-11-26,09:40:00,DRY,0.53,12.63,18.0,778.00,393.0
2022-11-26,09:45:00,DRY,0.95,12.85,16.0,778.00,408.5
2022-11-26,09:50:00,DRY,0.33,13.10,16.7,778.00,424.3
2022-11-26,09:55:00,DRY,0.20,13.30,17.0,778.00,439.0
2022-11-26,10:00:00,DRY,0.77,13.33,16.3,778.00,454.7
2022-11-26,10:05:00,DRY,0.50,13.35,18.0,778.00,469.0
2022-11-26,10:10:00,DRY,0.50,13.30,18.7,778.33,483.3
2022-11-26,10:15:00,DRY,0.65,13.60,18.0,779.00,497.0
2022-11-26,10:20:00,DRY,0.70,13.90,18.3,779.00,511.3
2022-11-26,10:25:00,DRY,1.50,14.00,18.0,779.00,527.0
2022-11-26,10:30:00,DRY,0.67,13.90,17.7,779.00,540.0
2022-11-26,10:35:00,DRY,0.85,14.00,19.0,779.00,553.0
2022-11-26,10:40:00,DRY,0.67,13.90,17.7,779.00,566.0
2022-11-26,10:45:00,DRY,1.65,14.00,17.0,779.00,577.5
2022-11-26,10:50:00,DRY,0.33,14.10,17.3,779.00,589.3
2022-11-26,10:55:00,DRY,0.60,14.70,16.5,779.00,600.0
2022-11-26,11:00:00,DRY,0.67,15.13,16.7,779.00,609.3
2022-11-26,11:05:00,DRY,0.35,15.10,17.5,779.00,618.0
2022-11-26,11:10:00,DRY,0.53,15.43,16.0,779.00,628.0
2022-11-26,11:15:00,DRY,0.70,15.05,16.5,779.00,638.5
2022-11-26,11:20:00,DRY,0.97,14.67,17.3,779.00,646.7
2022-11-26,11:25:00,DRY,1.35,13.55,18.5,779.00,656.0
2022-11-26,11:30:00,DRY,0.90,13.17,18.3,779.00,662.3
2022-11-26,11:35:00,DRY,0.60,13.10,20.0,779.00,669.0
2022-11-26,11:40:00,DRY,0.53,13.53,21.0,779.00,676.3
2022-11-26,11:45:00,DRY,1.15,13.80,21.5,779.00,683.0
2022-11-26,11:50:00,DRY,1.10,13.50,23.7,779.00,688.7
2022-11-26,11:55:00,DRY,0.70,13.55,23.0,779.00,695.5
2022-11-26,12:00:00,DRY,1.80,13.60,24.0,779.00,701.7
2022-11-26,12:05:00,DRY,2.00,13.45,22.0,779.00,710.0
2022-11-26,12:10:00,DRY,1.23,13.57,22.3,779.00,715.7
2022-11-26,12:15:00,DRY,1.30,14.05,24.0,779.00,719.0
2022-11-26,12:20:00,DRY,1.37,14.43,23.0,778.67,721.7
2022-11-26,12:25:00,DRY,1.10,14.40,25.0,778.50,723.0
2022-11-26,12:30:00,DRY,1.03,13.27,26.7,778.00,722.0
2022-11-26,12:35:00,DRY,1.05,13.20,27.0,778.00,722.5
2022-11-26,12:40:00,DRY,0.83,13.43,27.7,778.00,724.0
2022-11-26,12:45:00,DRY,1.15,13.25,28.0,778.00,725.5
2022-11-26,12:50:00,DRY,1.40,13.43,27.7,778.00,725.0
2022-11-26,12:55:00,DRY,0.95,13.40,26.5,778.00,726.0
2022-11-26,13:00:00,DRY,1.60,14.03,24.3,778.00,727.3
2022-11-26,13:05:00,DRY,1.60,14.40,22.0,778.00,729.0
2022-11-26,13:10:00,DRY,0.93,14.53,20.3,778.00,726.7
2022-11-26,13:15:00,DRY,0.60,14.50,22.5,778.00,723.0
2022-11-26,13:20:00,DRY,1.33,14.93,20.7,778.00,734.3
2022-11-26,13:25:00,DRY,0.90,15.25,20.0,778.00,721.0
2022-11-26,13:30:00,DRY,1.15,15.25,20.5,778.00,715.5
2022-11-26,13:35:00,DRY,1.40,15.30,24.0,778.00,712.0
2022-11-26,13:40:00,DRY,1.60,15.20,21.3,778.00,709.7
2022-11-26,13:45:00,DRY,0.70,14.85,20.5,778.00,704.5
2022-11-26,13:50:00,DRY,1.53,15.10,20.7,778.00,695.3
2022-11-26,13:55:00,DRY,2.40,14.85,22.0,778.00,692.5
2022-11-26,14:00:00,DRY,2.83,14.40,22.0,778.00,688.3
2022-11-26,14:05:00,DRY,1.70,14.55,22.5,778.00,681.0
2022-11-26,14:10:00,DRY,1.87,14.83,21.7,778.00,672.3
2022-11-26,14:15:00,DRY,1.15,15.00,21.0,778.00,662.5
2022-11-26,14:20:00,DRY,0.53,15.13,22.3,778.00,653.3
2022-11-26,14:25:00,DRY,0.80,14.90,22.0,778.00,647.0
2022-11-26,14:30:00,DRY,1.50,15.30,23.0,778.00,638.7
2022-11-26,14:35:00,DRY,1.95,15.05,21.5,778.00,629.5
2022-11-26,14:40:00,DRY,0.83,14.17,24.3,778.00,616.3
2022-11-26,14:45:00,DRY,1.55,13.75,27.5,778.00,606.5
2022-11-26,14:50:00,DRY,1.20,13.53,31.0,778.00,601.7
2022-11-26,14:55:00,DRY,1.25,13.15,45.5,778.00,587.5
2022-11-26,15:00:00,DRY,1.00,12.83,48.3,778.00,553.0
2022-11-26,15:05:00,DRY,1.20,12.90,42.0,778.00,495.5
2022-11-26,15:10:00,DRY,0.87,12.67,43.7,778.00,542.7
2022-11-26,15:15:00,DRY,0.75,12.50,44.0,777.50,537.0
2022-11-26,15:20:00,DRY,0.83,12.73,41.3,777.33,520.0
2022-11-26,15:25:00,DRY,1.00,12.60,39.0,777.00,502.5
2022-11-26,15:30:00,DRY,0.57,12.57,37.7,777.33,486.0
2022-11-26,15:35:00,DRY,0.75,12.95,36.0,777.00,472.0
2022-11-26,15:40:00,DRY,0.80,13.00,34.3,777.00,457.3
2022-11-26,15:45:00,DRY,0.75,12.95,38.0,777.50,442.5
2022-11-26,15:50:00,DRY,0.77,12.53,41.3,777.67,426.7
2022-11-26,15:55:00,DRY,1.15,12.35,41.0,777.50,411.5
2022-11-26,16:00:00,DRY,1.07,12.17,37.0,778.00,396.0
2022-11-26,16:05:00,DRY,0.95,12.15,33.0,778.00,380.5
2022-11-26,16:10:00,DRY,1.03,12.17,41.3,778.00,367.0
2022-11-26,16:15:00,DRY,0.85,12.00,42.5,778.00,350.5
2022-11-26,16:20:00,DRY,0.77,12.17,31.3,778.00,332.7
2022-11-26,16:25:00,DRY,1.05,12.15,27.0,778.00,315.0
2022-11-26,16:30:00,DRY,1.13,11.97,30.3,778.00,297.7
2022-11-26,16:35:00,DRY,0.60,11.70,35.0,778.00,282.5
2022-11-26,16:40:00,DRY,0.67,11.73,32.0,778.00,265.3
2022-11-26,16:45:00,DRY,0.40,11.95,26.0,778.00,248.0
2022-11-26,16:50:00,DRY,0.50,12.13,24.0,778.00,231.0
2022-11-26,16:55:00,DRY,0.35,12.15,22.0,778.00,212.5
2022-11-26,17:00:00,DRY,0.83,12.23,22.3,778.00,192.7
2022-11-26,17:05:00,DRY,0.75,11.75,22.5,778.00,173.5
2022-11-26,17:10:00,DRY,0.37,11.77,23.7,778.00,157.7
2022-11-26,17:15:00,DRY,0.45,12.30,25.5,778.00,140.5
2022-11-26,17:20:00,DRY,0.67,12.17,25.7,778.00,124.3
2022-11-26,17:25:00,DRY,0.60,12.10,23.5,778.00,105.5
2022-11-26,17:30:00,DRY,0.53,12.03,25.0,778.00,89.3
2022-11-26,17:35:00,DRY,0.25,11.95,26.0,778.00,75.0
2022-11-26,17:40:00,DRY,0.20,12.30,25.3,778.00,58.3
2022-11-26,17:45:00,DRY,0.30,12.35,25.0,778.00,41.5
2022-11-26,17:50:00,DRY,0.13,12.30,25.7,778.00,25.0
2022-11-26,17:55:00,DRY,0.30,12.60,25.0,778.00,12.5
2022-11-26,18:00:00,DRY,0.67,12.40,25.3,778.00,8.3
2022-11-26,18:05:00,DRY,0.65,12.10,24.5,778.00,6.5
2022-11-26,18:10:00,DRY,0.57,11.93,23.0,778.00,2.7
2022-11-26,18:15:00,DRY,0.25,11.80,25.0,778.00,0.0
2022-11-26,18:20:00,DRY,0.17,11.77,26.3,778.00,0.0
2022-11-26,18:25:00,DRY,0.30,11.45,26.5,778.00,0.0
2022-11-26,18:30:00,DRY,0.33,11.20,29.7,778.00,0.0
2022-11-26,18:35:00,DRY,0.20,10.95,30.0,778.00,0.0
2022-11-26,18:40:00,DRY,0.37,10.80,27.0,778.00,0.0
2022-11-26,18:45:00,DRY,0.35,10.85,20.0,778.00,0.0
2022-11-26,18:50:00,DRY,0.53,10.83,19.0,778.00,0.0
2022-11-26,18:55:00,DRY,0.75,10.80,18.0,778.00,0.0
2022-11-26,19:00:00,DRY,1.03,10.90,18.0,778.00,0.0
2022-11-26,19:05:00,DRY,1.10,10.95,19.0,778.00,0.0
2022-11-26,19:10:00,DRY,1.47,11.00,19.0,778.00,0.0
2022-11-26,19:15:00,DRY,1.50,11.00,19.5,778.00,0.0
2022-11-26,19:20:00,DRY,1.10,11.00,20.3,778.00,0.0
2022-11-26,19:25:00,DRY,1.45,11.00,21.0,778.00,0.0
2022-11-26,19:30:00,DRY,1.77,11.03,20.3,778.00,0.0
2022-11-26,19:35:00,DRY,0.75,10.95,23.5,778.00,0.0
2022-11-26,19:40:00,DRY,1.10,10.73,24.7,778.00,0.0
2022-11-26,19:45:00,DRY,1.55,10.80,19.5,778.00,0.0
2022-11-26,19:50:00,DRY,1.47,10.87,19.7,778.00,0.0
2022-11-26,19:55:00,DRY,1.70,10.95,18.5,778.00,0.0
2022-11-26,20:00:00,DRY,1.03,10.87,22.3,778.00,0.0
2022-11-26,20:05:00,DRY,0.95,10.75,20.5,778.00,0.0
2022-11-26,20:10:00,DRY,1.00,10.77,20.0,778.00,0.0
2022-11-26,20:15:00,DRY,0.55,10.75,19.5,778.00,0.0
2022-11-26,20:20:00,DRY,0.70,10.67,21.3,778.00,0.0
2022-11-26,20:25:00,DRY,0.95,10.45,28.0,778.00,0.0
2022-11-26,20:30:00,DRY,1.33,10.50,24.7,778.00,0.0
2022-11-26,20:35:00,DRY,1.00,10.60,24.5,778.50,0.0
2022-11-26,20:40:00,DRY,0.40,10.50,26.3,778.67,0.0
2022-11-26,20:45:00,DRY,0.85,10.30,24.5,779.00,0.0
2022-11-26,20:50:00,DRY,0.43,10.47,21.0,778.67,0.0
2022-11-26,20:55:00,DRY,0.45,10.35,21.5,778.50,0.0
2022-11-26,21:00:00,DRY,0.93,10.30,20.3,778.33,0.0
2022-11-26,21:05:00,DRY,0.50,10.45,18.5,779.00,0.0
2022-11-26,21:10:00,DRY,0.63,10.60,18.0,779.00,0.0
2022-11-26,21:15:00,DRY,0.75,10.65,18.0,778.50,0.0
2022-11-26,21:20:00,DRY,0.53,10.50,19.3,779.00,0.0
2022-11-26,21:25:00,DRY,0.80,10.40,19.0,779.00,0.0
2022-11-26,21:30:00,DRY,0.93,10.57,18.0,779.00,0.0
2022-11-26,21:35:00,DRY,0.80,10.70,18.0,779.00,0.0
2022-11-26,21:40:00,DRY,0.83,10.63,18.0,779.00,0.0
2022-11-26,21:45:00,DRY,1.05,10.70,18.0,779.00,0.0
2022-11-26,21:50:00,DRY,0.57,10.63,17.3,779.00,0.0
2022-11-26,21:55:00,DRY,1.15,10.50,17.0,779.00,0.0
2022-11-26,22:00:00,DRY,0.87,10.50,17.0,779.00,0.0
2022-11-26,22:05:00,DRY,0.65,10.40,17.0,779.00,0.0
2022-11-26,22:10:00,DRY,1.00,10.23,19.3,779.00,0.0
2022-11-26,22:15:00,DRY,0.85,10.05,22.0,779.00,0.0
2022-11-26,22:20:00,DRY,0.53,9.93,21.0,779.00,0.0
2022-11-26,22:25:00,DRY,0.35,10.05,21.5,779.00,0.0
2022-11-26,22:30:00,DRY,0.60,9.93,23.3,779.00,0.0
2022-11-26,22:35:00,DRY,1.15,9.70,23.5,779.00,0.0
2022-11-26,22:40:00,DRY,0.83,9.73,20.7,779.00,0.0
2022-11-26,22:45:00,DRY,0.95,9.90,19.5,779.00,0.0
2022-11-26,22:50:00,DRY,2.07,10.00,25.3,779.00,0.0
2022-11-26,22:55:00,DRY,1.25,10.10,23.0,779.00,0.0
2022-11-26,23:00:00,DRY,0.77,10.03,17.7,779.00,0.0
2022-11-26,23:05:00,DRY,1.25,10.05,16.5,779.00,0.0
2022-11-26,23:10:00,DRY,1.80,10.23,18.7,779.00,0.0
2022-11-26,23:15:00,DRY,1.75,10.30,18.0,779.00,0.0
2022-11-26,23:20:00,DRY,1.97,10.43,16.3,779.00,0.0
2022-11-26,23:25:00,DRY,1.95,10.40,17.0,779.00,0.0
2022-11-26,23:30:00,DRY,2.37,10.20,17.0,779.00,0.0
2022-11-26,23:35:00,DRY,2.60,10.05,16.0,779.00,0.0
2022-11-26,23:40:00,DRY,3.00,9.93,16.7,779.00,0.0
2022-11-26,23:45:00,DRY,3.30,9.90,16.5,779.00,0.0
2022-11-26,23:50:00,DRY,3.67,10.03,16.0,779.00,0.0
2022-11-26,23:55:00,DRY,2.80,10.20,15.0,779.00,0.0
2022-11-27,00:00:00,DRY,3.30,10.20,14.7,779.00,0.0
2022-11-27,00:05:00,DRY,3.35,10.15,14.5,779.00,0.0
2022-11-27,00:10:00,DRY,2.90,10.10,16.7,779.00,0.0
2022-11-27,00:15:00,DRY,1.80,10.00,19.0,779.00,0.0
2022-11-27,00:20:00,DRY,2.80,10.00,21.0,779.00,0.0
2022-11-27,00:25:00,DRY,3.10,9.90,22.5,779.00,0.0
2022-11-27,00:30:00,DRY,3.43,9.90,22.3,778.67,0.0
2022-11-27,00:35:00,DRY,4.30,9.95,22.0,779.00,0.0
2022-11-27,00:40:00,DRY,3.93,9.97,23.0,778.67,0.0
2022-11-27,00:45:00,DRY,4.10,9.85,23.0,778.00,0.0
2022-11-27,00:50:00,DRY,4.30,9.73,23.0,778.33,0.0
2022-11-27,00:55:00,DRY,3.20,9.55,23.5,778.50,0.0
2022-11-27,01:00:00,DRY,3.57,9.53,23.7,778.00,0.0
2022-11-27,01:05:00,DRY,3.90,9.60,23.0,778.00,0.0
2022-11-27,01:10:00,DRY,3.33,9.57,23.0,778.00,0.0
2022-11-27,01:15:00,DRY,4.05,9.65,22.0,778.00,0.0
2022-11-27,01:20:00,DRY,3.17,9.73,21.7,778.00,0.0
2022-11-27,01:25:00,DRY,3.05,9.85,20.0,778.00,0.0
2022-11-27,01:30:00,DRY,2.70,10.10,19.0,778.00,0.0
2022-11-27,01:35:00,DRY,3.55,10.10,19.0,778.00,0.0
2022-11-27,01:40:00,DRY,3.60,10.20,19.0,778.00,0.0
2022-11-27,01:45:00,DRY,3.90,10.05,19.0,778.00,0.0
2022-11-27,01:50:00,DRY,3.07,9.97,19.7,778.00,0.0
2022-11-27,01:55:00,DRY,3.65,9.80,19.5,778.00,0.0
2022-11-27,02:00:00,DRY,3.07,9.97,19.7,778.00,0.0
2022-11-27,02:05:00,DRY,3.20,10.25,20.5,778.00,0.0
2022-11-27,02:10:00,DRY,3.90,10.20,19.3,778.00,0.0
2022-11-27,02:15:00,DRY,4.00,10.25,19.0,778.00,0.0
2022-11-27,02:20:00,DRY,3.67,10.37,19.0,778.00,0.0
2022-11-27,02:25:00,DRY,2.05,10.40,19.0,778.00,0.0
2022-11-27,02:30:00,DRY,2.80,10.33,19.0,778.00,0.0
2022-11-27,02:35:00,DRY,4.10,10.40,19.0,778.00,0.0
2022-11-27,02:40:00,DRY,2.60,10.43,20.0,778.00,0.0
2022-11-27,02:45:00,DRY,3.00,10.40,20.0,778.00,0.0
2022-11-27,02:50:00,DRY,2.57,10.37,20.3,778.00,0.0
2022-11-27,02:55:00,DRY,2.30,10.30,22.5,778.00,0.0
2022-11-27,03:00:00,DRY,3.83,10.30,20.7,778.00,0.0
2022-11-27,03:05:00,DRY,4.10,10.35,21.0,778.00,0.0
2022-11-27,03:10:00,DRY,3.57,10.43,20.0,778.00,0.0
2022-11-27,03:15:00,DRY,3.75,10.35,20.0,778.00,0.0
2022-11-27,03:20:00,DRY,3.07,10.33,20.0,778.00,0.0
2022-11-27,03:25:00,DRY,2.45,10.15,20.0,778.00,0.0
2022-11-27,03:30:00,DRY,3.93,10.13,20.0,778.00,0.0
2022-11-27,03:35:00,DRY,3.50,10.10,20.0,778.00,0.0
2022-11-27,03:40:00,DRY,4.07,10.10,21.0,778.00,0.0
2022-11-27,03:45:00,DRY,4.00,10.10,21.0,778.00,0.0
2022-11-27,03:50:00,DRY,4.10,10.03,21.7,778.00,0.0
2022-11-27,03:55:00,DRY,4.25,10.05,22.0,778.00,0.0
2022-11-27,04:00:00,DRY,3.63,9.93,22.3,778.00,0.0
2022-11-27,04:05:00,DRY,4.05,9.85,23.0,778.00,0.0
2022-11-27,04:10:00,DRY,4.13,9.90,23.0,777.33,0.0
2022-11-27,04:15:00,DRY,4.35,9.75,23.5,778.00,0.0
2022-11-27,04:20:00,DRY,4.20,9.70,24.0,777.67,0.0
2022-11-27,04:25:00,DRY,3.70,9.70,23.5,777.50,0.0
2022-11-27,04:30:00,DRY,4.07,9.93,21.0,777.00,0.0
2022-11-27,04:35:00,DRY,3.50,10.25,19.5,777.00,0.0
2022-11-27,04:40:00,DRY,3.57,10.33,19.0,777.00,0.0
2022-11-27,04:45:00,DRY,3.55,10.30,19.0,777.00,0.0
2022-11-27,04:50:00,DRY,3.10,10.37,19.0,777.00,0.0
2022-11-27,04:55:00,DRY,2.00,10.25,19.0,777.00,0.0
2022-11-27,05:00:00,DRY,2.73,10.30,18.7,777.00,0.0
2022-11-27,05:05:00,DRY,3.15,10.30,19.0,777.00,0.0
2022-11-27,05:10:00,DRY,2.47,10.33,19.0,777.00,0.0
2022-11-27,05:15:00,DRY,3.30,10.25,19.0,777.00,0.0
2022-11-27,05:20:00,DRY,2.43,10.13,20.0,777.00,0.0
2022-11-27,05:25:00,DRY,2.55,10.20,20.0,777.00,0.0
2022-11-27,05:30:00,DRY,3.20,10.20,19.7,777.00,0.0
2022-11-27,05:35:00,DRY,3.45,10.25,20.0,777.00,0.0
2022-11-27,05:40:00,DRY,3.43,10.20,20.3,777.00,0.0
2022-11-27,05:45:00,DRY,3.45,10.15,20.0,777.00,0.0
2022-11-27,05:50:00,DRY,3.23,10.10,20.0,777.00,0.0
2022-11-27,05:55:00,DRY,2.85,10.05,20.0,777.00,0.0
2022-11-27,06:00:00,DRY,2.90,10.10,20.0,777.00,0.0
2022-11-27,06:05:00,DRY,2.75,10.00,20.5,777.00,0.0
2022-11-27,06:10:00,DRY,2.80,9.90,20.7,777.00,0.0
2022-11-27,06:15:00,DRY,2.85,9.85,21.0,777.00,0.0
2022-11-27,06:20:00,DRY,2.70,9.87,21.0,777.00,0.0
2022-11-27,06:25:00,DRY,2.90,9.95,21.0,777.00,0.0
2022-11-27,06:30:00,DRY,1.77,10.00,21.0,777.00,0.0
2022-11-27,06:35:00,DRY,1.80,9.90,21.0,777.00,0.0
2022-11-27,06:40:00,DRY,2.40,9.97,21.0,777.00,0.0
2022-11-27,06:45:00,DRY,2.40,9.90,21.0,777.00,0.0
2022-11-27,06:50:00,DRY,2.43,9.83,21.0,777.00,0.0
2022-11-27,06:55:00,DRY,2.45,9.95,20.0,777.50,0.0
2022-11-27,07:00:00,DRY,2.47,9.77,21.0,777.67,0.0
2022-11-27,07:05:00,DRY,3.30,9.75,21.0,778.00,0.0
2022-11-27,07:10:00,DRY,2.60,9.87,21.0,778.00,0.0
2022-11-27,07:15:00,DRY,2.85,10.00,21.0,778.00,0.0
2022-11-27,07:20:00,DRY,2.77,9.97,21.0,778.00,0.0
2022-11-27,07:25:00,DRY,2.90,9.85,21.0,778.00,0.0
2022-11-27,07:30:00,DRY,2.90,9.83,21.0,778.00,0.0
2022-11-27,07:35:00,DRY,2.55,9.90,21.0,778.00,0.0
2022-11-27,07:40:00,DRY,2.70,9.80,21.0,778.00,0.0
2022-11-27,07:45:00,DRY,2.90,9.80,20.5,778.00,0.0
2022-11-27,07:50:00,DRY,2.23,9.77,20.3,778.00,1.0
2022-11-27,07:55:00,DRY,2.20,9.70,21.0,778.00,4.0
2022-11-27,08:00:00,DRY,2.33,9.70,21.0,778.00,7.0
2022-11-27,08:05:00,DRY,1.95,9.70,21.0,778.00,9.5
2022-11-27,08:10:00,DRY,2.53,9.80,21.0,778.00,12.3
2022-11-27,08:15:00,DRY,1.85,9.90,21.0,778.00,15.5
2022-11-27,08:20:00,DRY,1.90,9.90,21.7,778.00,20.0
2022-11-27,08:25:00,DRY,1.55,10.00,22.0,778.00,98.0
2022-11-27,08:30:00,DRY,1.53,10.03,22.7,778.00,147.0
2022-11-27,08:35:00,DRY,1.70,10.25,21.0,778.00,164.0
2022-11-27,08:40:00,DRY,1.37,10.50,20.3,778.00,182.3
2022-11-27,08:45:00,DRY,0.50,10.70,20.5,778.00,199.5
2022-11-27,08:50:00,DRY,1.57,10.73,20.0,778.00,218.0
2022-11-27,08:55:00,DRY,1.65,10.90,19.5,778.00,236.5
2022-11-27,09:00:00,DRY,1.00,10.97,19.7,778.00,254.3
2022-11-27,09:05:00,DRY,0.85,11.10,19.0,778.00,271.5
2022-11-27,09:10:00,DRY,0.77,11.30,19.7,778.33,290.0
2022-11-27,09:15:00,DRY,0.45,11.35,20.0,779.00,306.0
2022-11-27,09:20:00,DRY,1.93,11.13,20.0,779.00,324.3
2022-11-27,09:25:00,DRY,1.70,11.10,20.5,779.00,343.5
2022-11-27,09:30:00,DRY,0.50,11.37,20.0,779.00,360.7
2022-11-27,09:35:00,DRY,1.95,11.50,21.5,779.00,377.0
2022-11-27,09:40:00,DRY,1.97,11.37,20.7,779.00,393.0
2022-11-27,09:45:00,DRY,1.75,11.40,22.0,779.00,411.5
2022-11-27,09:50:00,DRY,1.63,11.27,23.3,779.00,427.3
2022-11-27,09:55:00,DRY,1.85,11.35,24.0,779.00,442.5
2022-11-27,10:00:00,DRY,2.23,11.20,23.0,779.00,458.7
2022-11-27,10:05:00,DRY,2.05,11.25,23.0,779.00,473.5
2022-11-27,10:10:00,DRY,1.60,11.23,23.3,779.00,488.0
2022-11-27,10:15:00,DRY,2.75,11.20,24.0,779.00,503.0
2022-11-27,10:20:00,DRY,2.27,11.40,22.0,779.00,517.0
2022-11-27,10:25:00,DRY,2.95,11.45,23.0,779.00,530.5
2022-11-27,10:30:00,DRY,2.33,11.50,22.3,779.00,543.3
2022-11-27,10:35:00,DRY,1.65,11.60,22.5,779.00,556.5
2022-11-27,10:40:00,DRY,2.60,11.63,22.0,779.00,570.3
2022-11-27,10:45:00,DRY,2.25,11.65,21.5,779.00,583.0
2022-11-27,10:50:00,DRY,2.67,11.70,22.3,779.00,595.0
2022-11-27,10:55:00,DRY,1.90,11.90,22.5,779.00,606.0
2022-11-27,11:00:00,DRY,2.97,11.83,22.7,779.00,618.7
2022-11-27,11:05:00,DRY,2.45,11.90,23.5,779.00,631.0
2022-11-27,11:10:00,DRY,1.67,12.07,23.3,779.00,643.3
2022-11-27,11:15:00,DRY,2.65,12.25,23.0,779.00,645.0
2022-11-27,11:20:00,DRY,1.73,12.33,23.3,779.00,646.3
2022-11-27,11:25:00,DRY,2.10,12.50,23.0,779.00,646.0
2022-11-27,11:30:00,DRY,1.33,12.37,23.3,779.00,631.7
2022-11-27,11:35:00,DRY,1.55,12.40,23.5,779.00,636.0
2022-11-27,11:40:00,DRY,0.93,12.30,24.7,779.00,653.3
2022-11-27,11:45:00,DRY,0.85,12.55,25.5,779.00,679.0
2022-11-27,11:50:00,DRY,2.13,12.60,24.0,779.00,688.3
2022-11-27,11:55:00,DRY,1.50,12.55,24.0,779.00,702.0
2022-11-27,12:00:00,DRY,1.77,12.67,22.7,779.00,708.3
2022-11-27,12:05:00,DRY,0.75,12.85,23.0,779.00,715.0
2022-11-27,12:10:00,DRY,1.03,12.97,22.3,779.00,718.3
2022-11-27,12:15:00,DRY,2.50,12.60,24.5,779.00,722.0
2022-11-27,12:20:00,DRY,2.93,12.40,25.3,779.00,725.7
2022-11-27,12:25:00,DRY,3.45,12.20,25.0,779.00,728.0
2022-11-27,12:30:00,DRY,2.40,12.40,26.0,779.00,731.0
2022-11-27,12:35:00,DRY,1.35,12.30,29.0,779.00,730.5
2022-11-27,12:40:00,DRY,1.53,12.60,28.3,779.00,731.7
2022-11-27,12:45:00,DRY,1.85,12.55,29.5,778.50,731.5
2022-11-27,12:50:00,DRY,2.43,12.43,29.3,778.00,733.3
2022-11-27,12:55:00,DRY,2.10,12.10,31.0,778.00,733.5
2022-11-27,13:00:00,DRY,0.97,12.23,33.0,778.00,730.0
2022-11-27,13:05:00,DRY,1.30,12.10,34.5,778.00,727.0
2022-11-27,13:10:00,DRY,1.50,11.60,35.7,778.00,724.0
2022-11-27,13:15:00,DRY,1.60,11.85,31.5,778.00,725.0
2022-11-27,13:20:00,DRY,1.80,12.37,32.0,778.00,723.3
2022-11-27,13:25:00,DRY,1.60,12.50,30.5,778.00,718.5
2022-11-27,13:30:00,DRY,1.75,12.35,29.5,778.00,716.0
2022-11-27,13:35:00,DRY,0.50,12.50,30.0,778.00,712.0
2022-11-27,13:40:00,DRY,1.83,12.50,29.3,778.00,709.0
2022-11-27,13:45:00,DRY,1.50,12.20,28.5,778.00,705.5
2022-11-27,13:50:00,DRY,2.23,12.20,29.0,778.00,701.3
2022-11-27,13:55:00,DRY,1.20,12.30,29.0,778.00,693.5
2022-11-27,14:00:00,DRY,1.23,11.97,34.7,778.00,684.3
2022-11-27,14:05:00,DRY,0.95,11.80,36.0,777.50,676.5
2022-11-27,14:10:00,DRY,1.63,11.87,33.0,777.00,672.0
2022-11-27,14:15:00,DRY,1.15,11.80,34.5,777.00,663.0
2022-11-27,14:20:00,DRY,1.77,12.00,34.0,777.00,656.0
2022-11-27,14:25:00,DRY,1.90,11.95,37.0,777.00,647.0
2022-11-27,14:30:00,DRY,1.87,11.90,37.7,777.00,636.3
2022-11-27,14:35:00,DRY,1.25,11.25,42.5,777.00,626.0
2022-11-27,14:40:00,DRY,1.27,11.30,43.7,777.00,613.7
2022-11-27,14:45:00,DRY,1.85,11.30,43.0,777.00,604.0
2022-11-27,14:50:00,DRY,1.87,11.60,36.0,777.00,597.3
2022-11-27,14:55:00,DRY,1.75,12.25,34.5,777.00,589.0
2022-11-27,15:00:00,DRY,2.10,11.93,35.3,777.00,576.7
2022-11-27,15:05:00,DRY,1.25,11.75,35.5,777.00,565.5
2022-11-27,15:10:00,DRY,1.43,12.00,37.0,777.00,551.7
2022-11-27,15:15:00,DRY,1.35,11.75,34.0,777.00,539.0
2022-11-27,15:20:00,DRY,1.83,11.60,31.7,777.00,525.0
2022-11-27,15:25:00,DRY,1.10,11.60,33.5,777.00,509.0
2022-11-27,15:30:00,DRY,1.60,11.87,32.7,777.00,494.3
2022-11-27,15:35:00,DRY,1.40,11.45,32.5,777.00,481.5
2022-11-27,15:40:00,DRY,0.93,11.47,31.3,777.00,465.7
2022-11-27,15:45:00,DRY,1.50,11.70,30.0,777.00,450.0
2022-11-27,15:50:00,DRY,1.53,11.30,32.0,777.00,436.0
2022-11-27,15:55:00,DRY,1.20,11.10,33.5,777.00,422.0
2022-11-27,16:00:00,DRY,1.07,11.57,34.3,777.00,404.3
2022-11-27,16:05:00,DRY,0.95,12.15,31.5,777.00,389.5
2022-11-27,16:10:00,DRY,2.43,12.40,30.3,777.00,375.0
2022-11-27,16:15:00,DRY,0.70,12.65,26.5,777.00,357.5
2022-11-27,16:20:00,DRY,1.03,12.63,31.0,777.00,338.7
2022-11-27,16:25:00,DRY,2.00,12.60,29.0,777.00,324.0
2022-11-27,16:30:00,DRY,1.07,12.73,28.7,777.00,307.0
2022-11-27,16:35:00,DRY,0.25,12.05,30.0,777.00,287.5
2022-11-27,16:40:00,DRY,0.60,12.60,27.0,777.00,269.3
2022-11-27,16:45:00,DRY,1.10,12.80,28.0,777.00,251.5
2022-11-27,16:50:00,DRY,0.93,12.03,29.3,777.00,233.7
2022-11-27,16:55:00,DRY,0.80,12.20,30.0,777.00,215.5
2022-11-27,17:00:00,DRY,1.10,12.57,29.0,777.00,199.0
2022-11-27,17:05:00,DRY,1.30,11.80,30.5,777.00,182.5
2022-11-27,17:10:00,DRY,0.97,11.50,33.3,777.00,163.3
2022-11-27,17:15:00,DRY,1.35,11.80,33.0,777.00,147.5
2022-11-27,17:20:00,DRY,1.20,11.73,33.0,777.00,130.3
2022-11-27,17:25:00,DRY,1.65,11.80,33.5,777.00,113.5
2022-11-27,17:30:00,DRY,0.90,11.60,33.7,777.00,94.3
2022-11-27,17:35:00,DRY,1.25,11.55,34.0,777.00,77.0
2022-11-27,17:40:00,DRY,1.53,11.30,33.3,777.00,62.0
2022-11-27,17:45:00,DRY,1.35,11.05,36.0,777.00,46.5
2022-11-27,17:50:00,DRY,1.40,10.87,35.0,777.00,30.3
2022-11-27,17:55:00,DRY,2.80,10.95,36.5,777.00,19.0
2022-11-27,18:00:00,DRY,2.20,10.60,38.0,777.00,14.3
2022-11-27,18:05:00,DRY,1.85,10.35,38.5,777.00,10.0
2022-11-27,18:10:00,DRY,1.33,10.20,38.3,777.00,5.3
2022-11-27,18:15:00,DRY,1.90,10.10,36.5,777.00,0.5
2022-11-27,18:20:00,DRY,1.47,9.97,34.3,777.00,0.0
2022-11-27,18:25:00,DRY,0.80,9.75,36.5,777.00,0.0
2022-11-27,18:30:00,DRY,1.07,9.60,36.0,777.00,0.0
2022-11-27,18:35:00,DRY,1.20,9.50,35.5,777.00,0.0
2022-11-27,18:40:00,DRY,1.23,9.43,38.3,777.00,0.0
2022-11-27,18:45:00,DRY,0.35,9.50,34.5,777.00,0.0
2022-11-27,18:50:00,DRY,1.50,9.53,33.3,777.00,0.0
2022-11-27,18:55:00,DRY,1.25,9.75,33.0,777.00,0.0
2022-11-27,19:00:00,DRY,1.60,9.57,35.0,777.00,0.0
2022-11-27,19:05:00,DRY,1.10,9.45,34.5,777.00,0.0
2022-11-27,19:10:00,DRY,1.17,9.27,32.0,777.00,0.0
2022-11-27,19:15:00,DRY,1.15,9.25,33.5,777.00,0.0
2022-11-27,19:20:00,DRY,1.33,9.27,31.3,777.00,0.0
2022-11-27,19:25:00,DRY,1.30,9.30,33.5,777.00,0.0
2022-11-27,19:30:00,DRY,1.37,9.20,31.3,777.00,0.0
2022-11-27,19:35:00,DRY,1.70,9.15,31.5,777.00,0.0
2022-11-27,19:40:00,DRY,1.50,9.30,24.0,777.00,0.0
2022-11-27,19:45:00,DRY,2.65,9.85,21.0,777.00,0.0
2022-11-27,19:50:00,DRY,2.40,10.13,19.7,777.00,0.0
2022-11-27,19:55:00,DRY,2.30,10.00,21.5,777.50,0.0
2022-11-27,20:00:00,DRY,0.93,9.63,23.7,778.00,0.0
2022-11-27,20:05:00,DRY,1.90,9.40,31.0,778.00,0.0
2022-11-27,20:10:00,DRY,2.37,9.23,36.7,778.00,0.0
2022-11-27,20:15:00,DRY,2.20,8.95,36.5,778.00,0.0
2022-11-27,20:20:00,DRY,2.27,9.13,31.0,778.00,0.0
2022-11-27,20:25:00,DRY,0.90,9.35,27.0,778.00,0.0
2022-11-27,20:30:00,DRY,1.53,9.33,25.0,778.00,0.0